Weather Service Report


293 
ASUS46 KSTO 220309
RWRCA 

NORTHERN AND CENTRAL CA REGIONAL WEATHER ROUNDUP
NATIONAL WEATHER SERVICE SACRAMENTO CA 
800 PM PDT TUE OCT 21 2014

NOTE: FAIR INDICATES FEW OR NO CLOUDS BELOW 12,000 FEET WITH NO
SIGNIFICANT WEATHER AND/OR OBSTRUCTIONS TO VISIBILITY.

CAZ001-003-220400-
NORTHWEST AREA
  
CITY           SKY/WX    TMP DP  RH WIND       PRES   REMARKS
CRESCENT CITY  CLOUDY    59  52  77 SE10      30.01F                  
ARCATA         NOT AVBL                                               
SHELTER COVE   NOT AVBL                                               
UKIAH          CLEAR     58  46  64 CALM      30.05R                  
$$

CAZ006-505>513-220400-
BAY AREA
  
CITY           SKY/WX    TMP DP  RH WIND       PRES   REMARKS
SANTA ROSA     CLEAR     61  50  67 W7        30.01R                  
SAN RAFAEL     N/A       62  MM  MM MISG
NAPA           CLEAR     57  50  77 SW5       30.02R                  
CONCORD        CLEAR     62  50  64 W8        30.02R                  
OAKLAND CITY   N/A       64  MM  MM MISG
OAKLAND        PTCLDY    62  52  69 NW7       30.03R                  
SAN FRAN CITY  N/A       61  MM  70 MISG
SAN FRAN ARPT  PTCLDY    64  55  72 W18G24    30.03R                  
LIVERMORE      CLEAR     61  48  62 CALM      30.02R                  
HAYWARD        CLEAR     57  57 100 NW6       30.03R                  
REDWOOD CITY   N/A       MM  MM  MM MISG
MOFFETT ARPT   CLEAR     62  47  57 NW6       30.04R                  
SAN JOSE ARPT  CLEAR     60  49  66 NW7       30.04R                  
$$
CAZ034-037-514>518-220400-
CENTRAL COAST
  
CITY           SKY/WX    TMP DP  RH WIND       PRES   REMARKS
WATSONVILLE    CLEAR     63  50  62 CALM      30.01R                  
SALINAS        CLEAR     63  51  65 SW6       30.01R                  
MONTEREY       CLEAR     62  51  67 SE3       30.03R                  
PT PIEDRAS BLS NOT AVBL                                               
SAN LUIS OBISP CLEAR     61  53  75 NW12      29.94S                  
SANTA MARIA    CLEAR     63  53  70 NW13      29.93R                  
$$
CAZ015-016-220400-
NORTHERN SACRAMENTO VALLEY
  
CITY           SKY/WX    TMP DP  RH WIND       PRES   REMARKS
REDDING        CLEAR     56  47  71 NW6       30.02R                  
RED BLUFF      CLEAR     58  42  55 W6        30.03R                  
OROVILLE       CLEAR     59  43  55 CALM      30.02R                  
$$
CAZ016>018-220400-
SOUTHERN SACRAMENTO VALLEY
  
CITY           SKY/WX    TMP DP  RH WIND       PRES   REMARKS
AUBURN         PTCLDY    55  41  58 CALM      30.02S                  
BEALE AFB      PTCLDY    58  45  62 CALM      30.00R                  
LINCOLN        FAIR      57  41  54 CALM      30.00R                  
MARYSVILLE     PTCLDY    57  43  59 NW5       30.01R                  
SAC INTL ARPT  CLEAR     59  42  53 NW3       30.00R                  
MATHER AIRPORT PTCLDY    61  39  44 N5        30.00S                  
DOWNTOWN SAC   N/A       61  MM  MM MISG
SAC EXEC ARPT  CLEAR     59  43  55 CALM      30.00R                  
VACAVILLE      CLEAR     61  41  47 CALM      30.02R                  
TRAVIS AFB     CLEAR     62  51  67 W5        30.00R                  
$$
CAZ019>021-220400-
SAN JOAQUIN VALLEY
  
CITY           SKY/WX    TMP DP  RH WIND       PRES   REMARKS
STOCKTON       CLEAR     64  42  44 W9        30.00R                  
MODESTO        CLEAR     63  40  42 NW9       29.99R                  
MERCED         CLEAR     64  41  42 NW9       29.98R                  
LEMOORE        PTCLDY    60  38  43 NW6       29.99R                  
FRESNO         PTCLDY    67  42  40 NW10      29.99R                  
HANFORD        CLEAR     63  41  44 NW3       29.98S                  
PORTERVILLE    PTCLDY    63  48  59 S3        29.99S                  
BAKERSFIELD    PTCLDY    66  42  41 CALM      29.99R                  
$$
CAZ011-012-071-220400-
NORTHERN MOUNTAINS
  
CITY           SKY/WX    TMP DP  RH WIND       PRES   REMARKS
YREKA          PTCLDY    49  41  74 SE7       30.04S                  
MOUNT SHASTA   PTCLDY    43  38  82 CALM      30.06S                  
ALTURAS        CLOUDY    44  38  79 CALM      30.07S                  
$$
CAZ011-012-071-220400-
SIERRA NEVADA MTNS
  
CITY           SKY/WX    TMP DP  RH WIND       PRES   REMARKS
BLUE CANYON    PTCLDY    46  36  68 NE5       30.10S                  
TRUCKEE        CLEAR     36  30  80 S3        30.11R                  
TAHOE VLY ARPT CLEAR     43  34  70 CALM      30.10                   
MAMMOTH LAKES  FAIR      50  18  27 SW3       30.10R                  
$$
  

Return to Home page


Western Regional Climate Center, wrcc@dri.edu